Temp
48 39 33 39 43 45 44 42 39 39 47 41 40 44 49 53 50 49 49 50 52 54 55 56 57 56 56 55 55 55 55 55 54 51 50 49 49 50 51 53 56 56 56 56
39 34 44 48 48 44 45 40 37 41 46 43 41 42 47 51 50 51 50 49 51 50 52 55 55 55 55 55 55 54 55 55 54 52 51 50 49 49 51 52 53 55 55 55
34 40 48 47 40 41 36 36 36 37 43 43 39 38 44 51 51 53 52 51 50 52 52 53 54 53 52 52 52 55 54 54 53 52 51 50 50 49 49 50 50 53 54 54
39 45 45 41 38 37 32 40 41 39 30 25 39 25 37 45 49 49 50 48 48 48 52 53 54 53 52 52 52 54 54 53 53 51 50 48 46 45 47 49 50 54 53 53
34 39 39 36 38 40 34 41 39 35 24 23 31 23 34 41 44 47 47 49 48 49 52 54 53 56 55 53 51 51 52 52 51 51 51 50 50 51 49 51 53 54 52 53
39 45 42 40 43 43 43 39 37 31 22 18 26 26 29 37 42 44 47 48 50 50 50 53 55 56 54 52 51 50 51 51 51 50 51 51 48 53 51 52 51 53 50 52
34 37 43 45 37 42 39 32 20 21 19 21 21 22 34 43 47 49 48 48 49 50 51 51 51 52 52 52 51 51 51 50 50 50 49 50 49 51 51 51 52 52 48 49
21 22 37 44 38 33 32 30 26 21 18 23 28 24 34 46 47 50 49 49 51 48 50 51 53 53 52 53 51 50 50 49 49 49 48 48 48 48 52 53 53 50 49 52
28 27 41 43 43 40 33 25 36 24 24 20 23 35 44 46 45 46 46 49 48 49 50 51 52 53 52 51 51 49 49 48 48 48 47 47 47 48 49 49 50 50 52 56
35 25 39 41 42 41 37 39 26 22 15 16 22 24 27 33 38 45 45 46 48 50 50 51 52 52 52 51 50 49 49 47 48 48 47 48 47 48 48 49 49 50 54 55
39 31 30 38 33 30 31 28 33 31 27 17 16 22 35 32 41 41 43 47 47 49 50 51 51 51 52 50 48 48 47 47 47 47 47 47 48 49 49 49 49 53 53 53
38 32 21 31 39 43 38 35 34 21 24 21 19 23 43 44 45 46 46 49 49 50 50 50 50 50 50 49 48 47 47 46 46 47 47 48 48 49 48 48 50 53 52 53
39 31 19 27 33 37 34 37 37 35 28 25 18 23 45 45 44 46 46 47 49 50 50 50 49 49 49 48 48 47 46 46 47 48 47 47 48 48 47 47 50 53 52 52
44 35 29 23 28 33 29 34 36 32 20 23 23 27 38 42 42 43 46 46 47 48 49 49 48 48 48 48 48 48 47 46 47 46 46 46 46 47 46 47 49 51 52 51
40 29 33 36 37 37 36 35 35 29 34 27 29 31 37 42 45 46 46 48 48 49 49 49 49 48 48 48 47 48 47 47 46 45 45 45 46 47 47 47 47 48 48 48
40 31 32 29 37 36 33 36 36 37 38 36 37 36 47 48 46 45 47 47 47 48 49 50 50 50 49 49 48 48 47 46 45 44 44 45 46 46 46 45 46 45 45 45
35 32 29 24 32 32 27 33 36 37 38 39 32 41 45 43 45 46 46 46 47 48 49 49 49 49 48 47 48 46 46 46 45 44 44 44 45 45 45 45 44 44 43 43
35 33 31 25 27 21 35 41 41 38 40 41 42 44 44 44 45 45 45 44 46 47 48 49 48 47 47 48 47 46 46 45 44 43 43 43 43 43 43 43 42 42 42 42
35 33 27 24 22 29 34 36 36 34 36 41 39 41 43 44 43 43 46 46 45 47 49 48 48 47 47 47 47 45 44 44 43 43 42 42 43 42 42 41 40 40 40 40
35 34 28 26 22 23 33 38 42 40 30 40 43 42 41 42 33 37 46 46 48 49 48 48 48 48 46 47 46 44 43 42 42 43 43 43 43 42 41 40 40 40 40 41
28 27 23 24 23 28 38 40 41 28 33 41 42 41 41 38 40 45 46 47 47 47 48 48 47 46 47 47 45 44 43 42 45 44 44 43 43 42 41 40 39 39 39 39
25 23 23 25 22 20 42 40 35 41 41 44 43 43 42 43 44 45 47 45 47 47 47 48 45 47 47 45 43 43 42 45 44 44 43 42 42 43 43 39 38 38 37 36
28 32 28 31 32 41 43 43 47 45 43 42 42 44 44 44 44 46 44 46 47 46 47 46 45 47 44 44 43 42 45 44 43 42 41 41 41 41 40 38 37 36 36 35
37 38 34 35 40 40 43 44 43 44 43 47 47 46 44 43 44 45 46 46 46 47 44 46 44 43 42 43 44 42 43 43 42 40 40 40 39 39 38 39 39 37 35 37
35 34 33 34 40 42 42 42 42 45 44 43 44 44 44 43 44 44 43 44 44 45 46 44 42 42 43 42 42 42 43 42 40 39 38 38 39 38 38 38 38 37 40 41
35 34 32 34 41 40 42 41 42 40 40 41 40 40 42 41 40 42 42 44 44 44 45 43 43 41 42 41 41 41 41 41 39 38 38 38 37 37 36 36 37 43 44 44
MSLP
1016.87 1017.93 1019.27 1019.69 1019.29 1019.05 1019.11 1019.49 1020.50 1020.87 1020.69 1020.43 1020.32 1020.04 1019.23 1018.86 1018.96 1019.14 1019.26 1019.15 1019.10 1019.02 1019.01 1019.21 1019.33 1019.52 1019.80 1020.06 1020.31 1020.38 1020.42 1020.42 1020.40 1020.43 1020.41 1020.29 1020.33 1019.97 1019.76 1019.38 1019.02 1018.90 1018.69 1018.50
1018.79 1020.16 1020.53 1020.16 1019.59 1019.70 1019.81 1020.53 1021.39 1021.48 1021.28 1021.27 1021.11 1020.38 1019.33 1018.55 1018.08 1018.02 1018.32 1018.61 1018.66 1018.87 1019.23 1019.34 1019.34 1019.40 1019.70 1019.98 1020.17 1020.31 1020.38 1020.32 1020.30 1020.36 1020.33 1020.28 1020.18 1019.91 1019.67 1019.43 1019.14 1018.88 1018.65 1018.46
1020.42 1021.56 1020.96 1020.65 1021.10 1021.09 1022.20 1022.45 1022.58 1022.78 1022.43 1022.36 1022.32 1021.26 1019.88 1017.96 1017.34 1017.22 1017.42 1017.68 1018.16 1018.62 1018.96 1019.20 1019.26 1019.46 1019.67 1019.97 1020.16 1020.25 1020.22 1020.21 1020.23 1020.24 1020.22 1020.15 1020.07 1019.89 1019.74 1019.43 1019.18 1018.73 1018.49 1018.30
1022.00 1022.17 1021.90 1021.97 1022.55 1022.81 1023.39 1023.69 1023.72 1024.06 1024.41 1024.56 1023.93 1023.44 1020.66 1018.52 1017.77 1017.40 1017.57 1017.92 1018.08 1018.21 1018.54 1018.83 1019.02 1019.36 1019.54 1019.73 1019.96 1019.96 1020.02 1020.08 1020.07 1020.07 1020.08 1020.12 1020.05 1019.98 1019.80 1019.51 1019.14 1018.68 1018.33 1018.16
1023.80 1023.23 1023.09 1023.19 1023.77 1023.37 1024.12 1024.18 1024.65 1025.47 1026.09 1026.73 1025.78 1024.97 1021.02 1019.50 1018.34 1017.81 1017.60 1017.98 1018.06 1018.15 1018.34 1018.52 1018.72 1018.90 1019.07 1019.47 1019.74 1019.72 1019.82 1019.86 1019.83 1019.87 1019.79 1019.67 1019.69 1019.65 1019.57 1019.33 1018.95 1018.64 1018.15 1017.94
1023.73 1023.64 1023.78 1024.04 1024.17 1024.05 1024.37 1024.84 1025.55 1026.48 1027.71 1028.28 1027.34 1026.24 1022.45 1020.30 1018.73 1018.05 1017.71 1017.90 1018.12 1018.16 1018.28 1018.47 1018.52 1018.64 1018.94 1019.19 1019.46 1019.58 1019.65 1019.65 1019.64 1019.67 1019.55 1019.50 1019.62 1019.57 1019.40 1019.15 1018.90 1018.61 1018.41 1018.01
1024.59 1024.48 1024.30 1024.21 1024.49 1024.66 1024.88 1025.53 1026.90 1028.21 1028.73 1028.97 1028.09 1026.63 1022.48 1019.79 1018.69 1018.14 1018.08 1018.11 1018.19 1018.18 1018.32 1018.43 1018.54 1018.71 1018.89 1019.03 1019.25 1019.44 1019.43 1019.47 1019.51 1019.48 1019.52 1019.49 1019.48 1019.37 1019.17 1019.03 1018.94 1018.70 1018.40 1017.87
1025.13 1025.60 1025.10 1024.76 1024.91 1025.15 1025.48 1026.11 1026.93 1028.04 1029.08 1028.93 1027.89 1025.26 1021.08 1019.31 1018.56 1018.12 1018.22 1018.14 1018.20 1018.17 1018.28 1018.42 1018.37 1018.39 1018.61 1018.70 1018.91 1019.08 1019.18 1019.25 1019.33 1019.40 1019.41 1019.37 1019.30 1019.20 1018.96 1018.85 1018.67 1018.52 1018.15 1017.56
1024.64 1025.54 1025.43 1025.16 1025.14 1025.52 1025.79 1026.20 1026.65 1027.78 1028.97 1028.91 1026.80 1023.87 1020.80 1019.57 1019.14 1018.76 1018.54 1018.47 1018.50 1018.49 1018.34 1018.37 1018.34 1018.34 1018.41 1018.44 1018.55 1018.74 1018.94 1019.04 1019.11 1019.12 1019.15 1019.23 1019.12 1018.93 1018.85 1018.74 1018.46 1018.17 1017.75 1017.39
1023.92 1025.27 1025.51 1025.52 1025.48 1025.56 1025.64 1026.10 1026.80 1027.92 1028.97 1028.96 1027.04 1024.67 1022.03 1020.81 1019.79 1019.24 1019.01 1018.83 1018.71 1018.62 1018.42 1018.31 1018.24 1018.25 1018.21 1018.19 1018.29 1018.51 1018.62 1018.75 1018.80 1018.86 1018.93 1018.96 1018.81 1018.60 1018.42 1018.43 1018.19 1017.82 1017.53 1017.43
1023.32 1024.49 1026.13 1025.89 1025.64 1025.52 1025.92 1025.98 1026.62 1027.50 1028.29 1028.72 1027.46 1024.79 1021.39 1020.53 1019.79 1019.46 1019.20 1018.97 1018.76 1018.63 1018.42 1018.34 1018.18 1018.04 1017.96 1018.09 1018.23 1018.32 1018.40 1018.49 1018.61 1018.66 1018.57 1018.55 1018.39 1018.26 1018.13 1018.02 1017.75 1017.45 1017.46 1017.36
1023.68 1024.74 1025.76 1025.60 1025.13 1025.01 1025.29 1025.63 1026.19 1027.58 1028.04 1028.06 1027.39 1023.89 1020.92 1020.08 1019.45 1018.97 1018.93 1018.59 1018.49 1018.36 1018.20 1018.03 1017.79 1017.72 1017.77 1017.83 1017.91 1017.99 1018.06 1018.08 1018.06 1018.16 1018.17 1018.15 1018.10 1017.99 1017.70 1017.53 1017.32 1017.24 1017.23 1017.21
1023.78 1024.69 1025.67 1025.75 1025.69 1025.28 1025.24 1025.16 1025.60 1026.34 1027.12 1027.31 1026.84 1023.12 1020.51 1019.86 1019.37 1019.13 1018.94 1018.67 1018.32 1017.93 1017.71 1017.58 1017.45 1017.37 1017.32 1017.48 1017.44 1017.50 1017.54 1017.54 1017.55 1017.72 1017.87 1017.93 1017.85 1017.61 1017.33 1017.13 1016.97 1016.93 1016.97 1017.00
1023.81 1024.41 1024.90 1025.07 1024.58 1024.59 1025.00 1024.74 1025.01 1025.80 1026.57 1025.99 1024.34 1022.16 1020.98 1020.06 1019.69 1019.18 1018.78 1018.37 1018.02 1017.73 1017.47 1017.33 1017.37 1017.12 1016.85 1017.07 1016.90 1016.90 1016.91 1017.10 1017.12 1017.32 1017.62 1017.68 1017.53 1017.20 1017.00 1016.83 1016.74 1016.70 1016.72 1016.77
1024.17 1024.73 1024.61 1024.41 1024.10 1023.97 1023.79 1023.81 1024.12 1024.63 1024.42 1024.43 1022.71 1021.78 1020.72 1020.08 1019.64 1019.00 1018.55 1018.08 1017.78 1017.48 1017.19 1016.91 1016.79 1016.62 1016.43 1016.46 1016.35 1016.28 1016.38 1016.52 1016.61 1016.97 1017.19 1017.15 1016.97 1016.77 1016.64 1016.57 1016.49 1016.40 1016.39 1016.45
1024.45 1024.81 1024.77 1024.38 1023.59 1023.53 1023.13 1022.68 1022.74 1022.74 1022.74 1022.45 1022.06 1020.62 1019.66 1019.27 1019.04 1018.64 1018.22 1017.72 1017.40 1017.09 1016.77 1016.46 1016.30 1016.15 1016.09 1016.01 1015.89 1015.75 1015.83 1015.94 1016.18 1016.42 1016.56 1016.61 1016.59 1016.44 1016.31 1016.24 1016.21 1016.20 1016.27 1016.29
1024.86 1025.27 1025.41 1024.84 1023.80 1023.16 1022.17 1020.92 1020.82 1020.76 1020.58 1020.68 1020.86 1019.07 1019.05 1018.90 1018.65 1018.22 1017.74 1017.30 1017.01 1016.76 1016.41 1016.19 1016.09 1015.89 1015.71 1015.53 1015.34 1015.39 1015.30 1015.45 1015.73 1015.90 1016.08 1016.22 1016.22 1016.18 1015.96 1015.87 1015.87 1015.92 1016.04 1016.01
1024.85 1025.31 1025.56 1025.20 1024.21 1022.89 1020.23 1019.47 1019.34 1019.58 1019.40 1019.34 1019.20 1018.72 1018.78 1018.63 1018.26 1017.88 1017.43 1017.19 1016.91 1016.67 1016.39 1016.20 1015.93 1015.73 1015.52 1015.14 1015.02 1014.93 1014.95 1015.15 1015.36 1015.50 1015.60 1015.65 1015.75 1015.71 1015.64 1015.67 1015.62 1015.59 1015.65 1015.66
1025.15 1025.56 1025.88 1025.57 1024.74 1022.29 1019.94 1019.28 1019.02 1019.01 1018.80 1018.45 1018.56 1018.59 1018.53 1018.38 1018.16 1017.80 1017.21 1016.85 1016.82 1016.60 1016.26 1015.93 1015.61 1015.35 1015.07 1014.92 1014.69 1014.76 1014.85 1014.92 1015.07 1015.09 1015.08 1015.13 1015.31 1015.30 1015.31 1015.32 1015.33 1015.27 1015.23 1015.17
1025.49 1025.68 1026.17 1025.85 1024.96 1022.54 1019.92 1019.04 1018.67 1018.59 1018.58 1018.20 1018.22 1018.54 1018.70 1018.71 1018.75 1018.12 1017.30 1017.00 1016.63 1016.32 1016.00 1015.65 1015.25 1014.97 1014.76 1014.35 1014.39 1014.50 1014.48 1014.60 1014.66 1014.41 1014.38 1014.50 1014.59 1014.74 1014.71 1014.65 1014.69 1014.54 1014.53 1014.52
1026.01 1026.21 1026.13 1025.88 1024.80 1021.94 1019.75 1018.98 1018.73 1018.87 1019.16 1018.25 1018.20 1018.42 1018.55 1018.78 1018.45 1017.62 1017.21 1016.71 1016.34 1016.01 1015.60 1015.09 1014.92 1014.80 1014.24 1013.93 1013.99 1014.19 1014.05 1013.94 1013.47 1013.58 1013.62 1013.70 1013.66 1013.77 1013.64 1013.75 1013.86 1013.90 1014.05 1014.10
1025.19 1025.56 1025.60 1025.44 1024.24 1021.50 1019.34 1019.22 1019.10 1018.91 1018.48 1018.31 1018.34 1018.33 1018.43 1018.45 1018.08 1017.55 1017.02 1016.57 1016.07 1015.67 1015.21 1014.82 1014.61 1014.24 1013.61 1013.39 1013.56 1013.75 1013.59 1012.93 1013.05 1013.05 1013.14 1013.12 1013.01 1013.04 1013.04 1013.33 1013.38 1013.51 1013.64 1013.69
1023.92 1023.15 1023.33 1023.13 1021.26 1019.81 1019.18 1018.78 1018.55 1018.66 1018.78 1018.83 1018.77 1018.59 1018.51 1018.40 1017.97 1017.40 1016.80 1016.28 1015.69 1015.29 1014.85 1014.45 1014.20 1013.74 1013.22 1013.02 1013.10 1013.17 1012.51 1012.48 1012.46 1012.54 1012.48 1012.44 1012.40 1012.37 1012.44 1012.77 1012.85 1013.03 1013.10 1013.22
1022.37 1022.10 1022.21 1021.74 1019.86 1019.52 1019.27 1018.93 1018.74 1018.94 1019.12 1018.90 1018.75 1018.68 1018.44 1018.23 1017.73 1017.21 1016.65 1016.03 1015.55 1015.08 1014.61 1014.18 1013.76 1013.36 1012.98 1012.56 1012.54 1012.54 1012.30 1012.14 1012.23 1012.17 1011.99 1011.93 1011.97 1011.92 1011.97 1012.01 1012.14 1012.26 1012.37 1012.41
1022.05 1021.91 1021.69 1021.01 1019.95 1019.41 1019.01 1019.06 1019.11 1019.13 1019.23 1019.31 1019.14 1018.94 1018.72 1018.44 1017.77 1017.46 1016.70 1016.16 1015.61 1015.03 1014.45 1014.01 1013.53 1013.10 1012.68 1012.18 1012.11 1012.03 1012.00 1011.91 1011.80 1011.64 1011.59 1011.54 1011.51 1011.49 1011.42 1011.36 1011.35 1011.38 1011.21 1011.23
1021.46 1020.88 1021.07 1020.41 1020.02 1020.14 1019.68 1019.64 1019.69 1019.62 1019.68 1019.61 1019.50 1019.14 1018.62 1018.61 1018.17 1017.55 1016.72 1016.15 1015.52 1014.80 1014.21 1013.73 1013.24 1012.74 1012.30 1011.94 1011.77 1011.69 1011.63 1011.65 1011.61 1011.57 1011.33 1011.17 1011.12 1011.06 1011.03 1010.93 1010.65 1010.34 1010.22 1010.15
Wind_Speed
7 13 5 2 2 2 3 7 8 2 2 1 3 7 10 7 7 8 9 9 9 8 5 7 7 7 6 3 2 3 2 3 2 1 2 2 3 3 3 4 6 6 5 6
9 6 5 7 7 8 9 7 4 2 1 3 6 11 11 9 8 10 11 10 10 3 6 7 7 6 6 4 4 1 0 2 2 1 2 2 2 3 4 3 4 5 5 5
8 2 7 5 10 9 8 6 4 2 5 3 5 8 7 6 6 6 7 5 4 5 9 6 6 6 5 5 4 3 0 2 2 4 2 2 2 2 3 4 4 4 5 6
8 8 7 9 7 4 5 5 3 4 5 2 4 6 7 5 8 3 5 4 4 3 6 5 6 6 6 5 4 3 1 2 3 3 1 1 1 2 3 3 4 6 6 6
4 6 7 9 5 3 4 2 5 3 6 5 4 5 11 6 6 5 5 6 5 5 6 5 5 5 5 7 7 5 3 3 4 2 3 2 3 3 3 4 6 6 5 6
5 2 5 3 3 5 3 3 6 5 4 4 3 5 10 4 2 2 4 4 6 6 5 6 5 6 5 4 5 4 4 3 1 2 4 2 3 6 4 4 4 5 4 5
6 5 2 2 4 5 4 4 4 7 5 6 3 3 12 5 7 3 6 5 6 5 4 3 5 5 5 6 7 5 4 3 2 2 3 2 5 5 4 5 4 7 4 4
5 5 3 4 3 3 2 5 6 5 2 5 2 7 8 5 1 5 3 5 5 2 2 5 7 6 7 7 7 6 5 3 3 3 4 4 5 4 3 4 5 4 4 4
5 2 1 4 3 3 4 1 3 6 3 4 4 8 8 2 1 1 3 4 5 6 6 6 5 5 6 6 8 8 5 4 5 4 3 5 5 4 4 6 5 4 3 7
2 5 1 1 1 2 3 2 4 4 2 4 6 6 7 4 4 6 5 7 7 7 6 1 4 5 4 5 5 6 5 5 5 4 4 5 5 5 5 5 4 3 5 5
3 5 5 3 5 7 2 2 1 2 5 5 2 9 7 6 4 2 7 5 7 7 6 5 6 6 6 5 6 6 5 6 5 5 5 6 5 6 4 3 3 3 4 5
1 5 3 6 2 4 4 5 5 6 4 2 5 10 4 6 6 4 5 7 6 7 8 8 7 7 7 7 7 7 7 7 6 6 5 5 5 5 1 3 4 3 3 3
0 1 3 7 5 3 3 5 4 4 3 6 6 9 3 3 2 3 6 8 8 8 9 8 7 7 7 7 7 7 7 8 7 5 5 5 6 6 4 4 3 2 3 3
3 1 6 7 5 5 4 5 6 6 3 4 8 9 5 7 8 10 12 9 10 9 9 7 7 8 7 7 8 8 8 7 6 5 6 6 7 6 5 4 4 2 3 3
3 2 3 5 7 6 7 7 9 10 12 8 2 8 5 8 13 13 9 8 7 8 7 7 7 7 7 7 8 7 7 7 6 6 6 7 7 6 5 5 5 4 4 4
1 3 3 5 8 7 9 10 12 16 16 19 16 24 18 16 9 7 9 9 8 8 8 8 8 8 8 7 7 7 7 7 6 7 8 7 6 6 6 5 5 5 5 5
5 2 2 6 4 7 7 9 13 9 7 14 14 20 9 10 9 10 9 8 8 8 8 8 7 6 7 7 6 7 7 5 7 7 7 7 6 7 6 6 5 6 6 5
3 3 2 5 5 2 6 5 4 7 7 10 11 12 9 9 8 9 7 5 8 7 7 7 6 6 7 5 6 6 5 6 7 7 7 7 7 7 6 6 6 6 5 6
3 3 1 1 3 8 1 1 3 4 3 0 5 4 3 5 7 6 3 3 4 6 7 7 7 6 6 7 7 5 6 7 6 8 8 7 7 7 6 7 7 6 5 5
2 5 3 1 2 5 3 2 3 3 4 1 5 6 5 6 5 6 7 8 8 8 8 8 9 7 7 8 6 6 7 7 8 8 8 7 7 7 8 8 8 6 5 6
3 1 5 3 3 9 7 3 1 1 5 1 2 2 4 3 7 7 9 10 7 8 10 8 8 8 10 8 6 8 7 9 10 7 7 7 8 9 9 7 5 5 6 5
7 6 5 3 4 8 5 3 2 5 4 4 4 4 5 7 9 9 12 10 12 13 10 10 8 10 10 7 5 8 8 9 7 7 7 7 8 7 5 7 6 6 6 6
3 7 6 9 7 5 5 2 3 2 4 5 4 5 5 10 11 13 11 12 12 12 12 8 8 11 8 7 5 7 10 6 6 6 8 8 7 6 6 6 7 5 5 5
4 4 4 1 3 5 5 6 1 4 4 6 6 8 8 10 11 14 14 14 13 12 10 9 8 9 9 7 6 7 7 6 6 8 8 6 6 7 6 5 5 5 5 6
5 2 3 6 7 7 2 4 2 6 5 6 8 7 10 10 15 13 15 14 13 12 11 9 8 8 10 7 7 7 6 6 7 6 6 6 5 6 5 5 5 6 7 9
6 8 5 7 1 3 8 5 4 7 5 7 6 9 11 6 12 12 14 13 12 13 12 10 9 8 9 8 7 7 6 5 6 6 5 4 4 4 4 4 5 10 14 13
Wind_Direction
27 65 79 22 24 172 166 84 109 133 335 20 267 270 271 243 213 229 234 238 247 251 190 158 166 167 157 178 247 253 272 319 7 344 339 341 308 301 302 296 306 327 332 341
38 56 326 320 21 67 46 99 55 114 344 64 344 290 262 249 218 205 209 224 229 218 163 186 171 164 166 184 208 247 95 345 342 326 280 260 294 298 292 314 328 326 322 309
92 261 318 70 36 58 36 74 45 96 333 34 339 303 300 276 227 202 220 207 183 194 191 201 174 176 177 198 204 177 320 326 298 307 321 337 331 332 336 327 305 304 313 311
58 353 54 53 63 41 84 331 71 52 67 216 41 277 301 304 308 284 191 145 157 165 135 150 166 164 191 204 169 169 198 282 279 298 301 282 253 312 275 293 298 303 312 300
262 22 33 51 344 25 162 64 72 72 77 64 353 72 271 321 303 317 236 201 211 209 195 184 172 177 179 162 189 195 205 263 286 278 286 320 300 313 291 287 294 307 301 306
96 67 54 90 20 55 142 75 43 61 86 33 280 127 284 248 273 339 15 193 205 214 183 186 195 176 195 193 184 192 212 252 295 320 311 319 324 314 303 300 316 311 321 309
2 8 19 47 51 14 61 65 2 360 12 220 302 45 243 285 285 229 168 167 186 180 173 238 260 221 235 215 202 205 198 256 255 297 287 280 271 283 282 303 318 306 297 288
119 335 348 340 139 180 89 136 155 206 212 259 14 240 254 226 80 107 145 170 162 166 238 251 243 233 218 205 199 199 203 246 244 261 264 278 276 267 276 282 283 285 270 307
121 3 328 41 6 94 263 48 184 105 37 53 240 285 314 112 345 295 241 206 238 252 259 258 269 255 237 213 201 195 206 242 246 249 268 275 275 296 307 292 272 261 315 339
159 85 280 217 347 335 116 213 60 358 125 272 286 272 235 293 294 305 265 237 248 256 233 280 310 291 255 224 203 197 201 228 244 241 248 256 266 272 269 274 291 337 354 333
98 104 276 79 199 184 35 354 187 133 150 180 292 270 215 215 231 336 341 263 253 242 240 251 263 257 243 229 208 216 222 228 242 241 241 252 271 269 268 289 305 353 336 340
358 124 162 208 202 149 179 208 158 126 248 212 149 272 262 210 176 156 272 250 244 246 250 251 255 255 245 227 230 230 230 228 229 238 239 251 265 268 301 291 300 299 309 315
162 309 53 344 351 351 224 215 206 120 81 219 139 260 259 262 246 297 284 287 271 263 267 255 257 254 241 237 231 230 227 227 226 221 241 253 254 248 244 262 271 304 301 294
50 255 170 187 199 142 214 221 208 159 149 207 227 267 287 296 303 314 300 269 262 259 262 265 273 266 254 243 232 230 231 220 216 217 235 244 247 249 244 252 253 248 264 279
96 249 251 261 255 230 215 207 201 200 218 205 223 254 253 268 289 291 275 284 278 273 276 264 259 266 265 261 247 234 228 215 204 216 229 239 245 245 243 253 255 256 253 251
173 274 322 280 263 251 253 237 216 222 225 242 259 276 278 281 284 276 274 268 266 270 268 267 271 275 276 268 254 240 230 219 197 214 230 236 244 243 241 247 250 245 251 259
162 178 42 266 315 324 299 225 219 213 212 216 233 248 280 292 295 291 286 283 277 284 286 289 287 280 281 284 271 253 235 214 209 218 230 236 242 245 241 243 245 245 251 248
170 157 167 269 349 254 236 272 194 200 243 225 257 263 265 262 276 287 303 285 329 326 315 312 296 293 290 286 290 271 242 223 221 225 231 232 237 245 245 245 245 248 242 245
57 118 266 234 249 287 261 212 171 179 240 311 216 270 287 323 326 309 312 40 313 292 284 268 270 264 267 276 275 266 256 236 225 235 235 231 230 243 242 245 245 241 237 245
50 92 131 327 244 240 247 192 166 116 297 147 86 40 348 347 325 264 292 318 300 290 280 280 281 277 269 266 264 258 249 235 238 237 237 228 228 232 235 230 233 231 224 238
175 229 188 230 275 284 256 192 143 61 242 210 134 276 265 246 215 255 288 291 285 278 283 283 288 272 262 269 260 256 257 245 241 233 235 235 228 226 226 226 220 227 233 243
171 156 196 170 227 284 165 92 179 216 273 270 281 260 264 273 283 282 287 285 289 291 288 284 286 284 275 261 240 258 257 256 239 245 249 250 245 236 232 222 238 233 232 240
219 186 181 194 213 252 211 283 247 282 268 310 311 309 288 296 294 293 287 295 288 281 285 277 275 287 278 271 240 253 260 262 261 258 252 251 250 235 223 222 238 234 223 231
238 179 219 11 279 240 270 292 94 42 347 293 291 305 314 305 307 304 306 307 306 302 284 281 284 282 281 267 263 242 276 278 264 259 251 249 246 252 236 227 221 223 219 236
206 121 225 266 289 310 73 87 40 310 339 341 319 313 310 318 310 313 307 308 305 304 302 288 280 280 279 276 270 276 278 285 280 272 263 261 252 250 253 234 219 222 231 218
187 198 171 245 60 203 292 330 21 4 333 326 325 325 321 319 307 311 306 308 307 307 304 293 291 279 273 272 279 286 284 271 271 285 284 263 257 261 256 257 276 239 240 236